HARMAJA Weather Reports


time (UTC)temp
F
wind
direction
speed
knots
gust
knots
rain 1hr
in
rain 24hr
in
rain mn
in
humidity
%
barometer
mb
20260507064723 44 61 7.0 8.7 0.00 0.00 0.00 55 1016.0
20260507062723 43 59 5.2 8.7 0.00 0.00 0.00 63 1015.8
20260507060723 43 63 7.0 9.6 0.00 0.00 0.00 64 1015.7
20260507054723 43 65 9.6 12.2 0.00 0.00 0.00 60 1015.6
20260507052723 43 60 8.7 11.3 0.00 0.00 0.00 56 1015.6
20260507050723 43 58 9.6 13.0 0.00 0.00 0.00 52 1015.5
20260507044723 42 44 7.0 9.6 0.00 0.00 0.00 56 1015.5
20260507042723 42 44 7.8 10.4 0.00 0.00 0.00 55 1015.5
20260507040723 42 43 6.1 9.6 0.00 0.00 0.00 56 1015.5
20260507034723 41 33 9.6 11.3 0.00 0.00 0.00 54 1015.4
20260507032723 41 31 9.6 10.4 0.00 0.00 0.00 56 1015.3
20260507030723 41 27 9.6 11.3 0.00 0.00 0.00 56 1015.2
20260507024722 41 27 10.4 11.3 0.00 0.00 0.00 54 1015.1
20260507022723 41 28 9.6 11.3 0.00 0.00 0.00 55 1015.1
20260507020723 42 29 9.6 12.2 0.00 0.00 0.00 54 1015.2
20260507014722 42 29 8.7 9.6 0.00 0.00 0.00 56 1015.1
20260507012722 42 33 8.7 10.4 0.00 0.00 0.00 55 1015.1
20260507010722 42 26 10.4 13.0 0.00 0.00 0.00 52 1015.1
20260507004722 42 25 10.4 12.2 0.00 0.00 0.00 50 1015.0
20260507002722 42 26 8.7 10.4 0.00 0.00 0.00 56 1014.9
20260507000722 41 18 9.6 10.4 0.00 0.00 0.00 66 1014.9
20260506234722 41 17 9.6 10.4 0.00 0.00 0.00 67 1014.9
20260506232722 42 17 9.6 11.3 0.00 0.00 0.00 63 1014.8
20260506230723 43 13 10.4 11.3 0.00 0.00 0.00 59 1014.9
20260506224721 43 12 7.8 10.4 0.00 0.00 0.00 68 1014.8
20260506222722 43 2 6.1 7.0 0.00 0.00 0.00 76 1014.8
20260506220722 42 331 7.0 7.0 0.00 0.00 0.00 85 1014.7
20260506214722 41 306 3.5 4.3 0.00 0.00 0.00 88 1014.5
20260506212722 42 267 3.5 4.3 0.00 0.00 0.00 82 1014.5
20260506210721 42 254 5.2 5.2 0.00 0.00 0.00 79 1014.4
20260506204721 42 260 5.2 6.1 0.00 0.00 0.00 81 1014.4
20260506202722 42 254 6.1 7.8 0.00 0.00 0.00 84 1014.4
20260506200721 42 245 6.1 7.8 0.00 0.00 0.00 82 1014.4
20260506194721 42 236 7.8 9.6 0.00 0.00 0.00 80 1014.4
20260506192721 42 229 7.8 8.7 0.00 0.00 0.00 81 1014.3
20260506190721 42 226 7.8 10.4 0.00 0.00 0.00 81 1014.3
20260506184721 42 231 9.6 11.3 0.00 0.00 0.00 78 1014.1
20260506180721 43 225 11.3 13.0 0.00 0.00 0.00 78 1014.1
20260506172720 43 218 13.0 14.8 0.00 0.00 0.00 76 1014.2
20260506170721 43 223 12.2 13.0 0.00 0.00 0.00 76 1014.1
20260506164720 44 228 12.2 13.9 0.00 0.00 0.00 73 1014.0
20260506162721 43 214 11.3 13.0 0.00 0.00 0.00 77 1014.0
20260506160720 44 229 12.2 13.0 0.00 0.00 0.00 74 1014.1
20260506154721 44 227 13.0 14.8 0.00 0.00 0.00 74 1014.1
20260506152721 44 232 13.0 14.8 0.00 0.00 0.00 72 1014.1
20260506150720 44 235 14.8 16.5 0.00 0.00 0.00 72 1014.1
20260506144720 44 227 15.6 18.2 0.00 0.00 0.00 73 1014.3
20260506142720 44 219 15.6 18.2 0.00 0.00 0.00 73 1014.3
20260506140720 45 230 16.5 20.0 0.00 0.00 0.00 67 1014.2
20260506134720 44 232 17.4 20.0 0.00 0.00 0.00 67 1014.3
20260506132720 44 225 15.6 18.2 0.00 0.00 0.00 70 1014.3
20260506130719 44 230 17.4 19.1 0.00 0.00 0.00 68 1014.3
20260506124719 44 227 17.4 20.0 0.00 0.00 0.00 70 1014.3
20260506122719 44 229 18.2 20.9 0.00 0.00 0.00 69 1014.3
20260506120719 44 222 16.5 19.1 0.00 0.00 0.00 74 1014.3
20260506114720 43 219 18.2 21.7 0.00 0.00 0.00 76 1014.3
20260506112720 44 220 20.0 24.3 0.00 0.00 0.00 78 1014.2
20260506110720 44 219 19.1 20.9 0.00 0.00 0.00 73 1014.2
20260506104720 44 219 16.5 18.2 0.00 0.00 0.00 75 1014.1
20260506102720 44 218 17.4 20.0 0.00 0.00 0.00 75 1014.1
20260506100720 44 217 14.8 18.2 0.00 0.00 0.00 74 1013.9
20260506094720 44 214 13.9 16.5 0.00 0.00 0.00 77 1013.8
20260506092720 44 220 14.8 16.5 0.00 0.00 0.00 76 1013.6
20260506090720 44 219 13.9 15.6 0.00 0.00 0.00 76 1013.5
20260506084720 43 210 12.2 13.9 0.00 0.00 0.00 75 1013.4
20260506082720 43 221 13.0 14.8 0.00 0.00 0.00 77 1013.4
20260506080720 43 221 13.0 15.6 0.00 0.00 0.00 75 1013.2
20260506072720 43 226 10.4 12.2 0.00 0.00 0.00 72 1013.0
20260506070720 43 224 10.4 11.3 0.00 0.00 0.00 73 1012.8